Weather History for Deline, NT

Change the Weather History Date:

Tuesday, November 13, 2012

  Actual Average Record
Temperature  
Mean Temperature -10 °F -  
Max Temperature 3 °F - - ()
Min Temperature -24 °F - - ()
Degree Days  
Heating Degree Days 76    
Moisture  
Dew Point -15 °F    
Average Humidity 77    
Maximum Humidity 84    
Minimum Humidity 61    
Precipitation  
Precipitation 0.00 in - - ()
Sea Level Pressure  
Sea Level Pressure 30.04 in    
Wind  
Wind Speed 4 mph ()    
Max Wind Speed 16 mph    
Max Gust Speed -    
T = Trace of Precipitation, MM = Missing Value Source: Averaged Metar Reports

Daily Weather History Graph

Daily Weather History Graph

Search for Another Location

Airport:

Trip Planner

Search our weather history database for the weather conditions in past years. The results will help you decide how hot, cold, wet, or windy it might be!

Date:

Astronomy

Nov. 13, 2012 Rise Set
Actual Time 9:47 AM MST 4:07 PM MST
Civil Twilight 8:44 AM MST 5:10 PM MST
Nautical Twilight 7:41 AM MST 6:13 PM MST
Astronomical Twilight 6:43 AM MST 7:11 PM MST
Moon 9:44 AM MST (11/13) 3:48 PM MST (11/13)
Length of Visible Light 8h 25m
Length of Day
6h 19m
Waning Crescent, 0% of the Moon is Illuminated
Nov 13
Waning Crescent
Nov 13
New
Nov 20
First Quarter
Nov 28
Full
Dec 6
Last Quarter

Hourly Weather History & Observations

Time (MST) Temp. Windchill Dew Point Humidity Pressure Visibility Wind Dir Wind Speed Gust Speed Precip Events Conditions
12:00 AM -13.9 °F - -18.6 °F 80% 30.21 in - South 1.2 mph - N/A   Unknown
1:00 AM -1.3 °F -14.5 °F -5.1 °F 84% 30.17 in - SSE 6.9 mph - N/A   Unknown
2:00 AM -2.6 °F -14.6 °F -6.5 °F 83% 30.16 in - SSE 5.8 mph - N/A   Unknown
3:00 AM -11.4 °F - -16.8 °F 77% 30.14 in - Calm Calm - N/A   Unknown
4:00 AM -17.0 °F - -22.5 °F 76% 30.13 in - WNW 1.2 mph - N/A   Unknown
5:00 AM -20 °F - -26 °F 61% 30.11 in - Calm Calm - -  
5:00 AM -20.0 °F - -25.8 °F 75% 30.11 in - Calm Calm - N/A   Unknown
6:00 AM -20.9 °F -47.0 °F -26.7 °F 75% 30.08 in - North 16.1 mph - N/A   Unknown
7:00 AM -23.1 °F -34.2 °F -29.6 °F 72% 30.07 in - WNW 3.5 mph - N/A   Unknown
8:00 AM -23.3 °F -34.4 °F -29.4 °F 73% 30.06 in - West 3.5 mph - N/A   Unknown
9:00 AM -24.0 °F - -30.3 °F 72% 30.04 in - NNW 1.2 mph - N/A   Unknown
10:00 AM -24.2 °F -35.4 °F -29.9 °F 74% 30.03 in - West 3.5 mph - N/A   Unknown
11:00 AM -17 °F - -23 °F 63% 30.02 in - WNW 3.5 mph - -  
11:00 AM -17.1 °F -27.4 °F -22.5 °F 76% 30.02 in - WNW 3.5 mph - N/A   Unknown
12:00 PM -8.5 °F -17.6 °F -13.0 °F 81% 29.99 in - WNW 3.5 mph - N/A   Unknown
1:00 PM -3.3 °F -18.2 °F -8.1 °F 80% 29.98 in - WNW 8.1 mph - N/A   Unknown
2:00 PM -3.1 °F -17.9 °F -8.1 °F 79% 29.98 in - WNW 8.1 mph - N/A   Unknown
3:00 PM -3.8 °F -16.1 °F -8.7 °F 80% 29.99 in - West 5.8 mph - N/A   Unknown
4:00 PM -4.9 °F -17.4 °F -9.6 °F 80% 29.99 in - WNW 5.8 mph - N/A   Unknown
5:00 PM -5 °F - -10 °F 70% 29.99 in - WNW 2.3 mph - -  
5:00 PM -5.4 °F - -9.8 °F 82% 29.99 in - WNW 2.3 mph - N/A   Unknown
6:00 PM -6.5 °F -19.3 °F -10.7 °F 82% 29.97 in - WNW 5.8 mph - N/A   Unknown
7:00 PM -0.4 °F -17.6 °F -4.2 °F 84% 29.97 in - WNW 11.5 mph - N/A   Unknown
8:00 PM 2.5 °F -14.0 °F -1.7 °F 83% 29.97 in - WNW 11.5 mph - N/A   Unknown
9:00 PM 3.6 °F -14.8 °F -0.9 °F 82% 29.97 in - WNW 15.0 mph - N/A   Unknown
10:00 PM 2.5 °F -14.8 °F -2.4 °F 80% 29.97 in - West 12.7 mph - N/A   Unknown
11:00 PM -0 °F - -5 °F 69% 29.96 in - West 8.1 mph - -  
11:00 PM -0.2 °F -14.4 °F -5.1 °F 80% 29.96 in - West 8.1 mph - N/A   Unknown